[[{"header":{"parameterUnit":"m.s-1","parameterCategory":1,"la1":30.2991,"la2":30.254,"lo1":-89.0895,"lo2":-89.0444,"dy":0.0017,"dx":0.0017,"nx":28,"ny":28,"refTime":"2024-12-05T03:00:00:Z","depth":0,"parameterNumber":2,"parameterNumberName":"U-component_of_WINDS"},"data":[0,0,0,0,0,0,0,0,0,0,0,0,0,0,0,0,0,0,0,0,0,0,0,0,0,0,0,0,0,0,0,0,0,0,0,0,0,0,0,0,0,0,0,0,0,0,0,0,0,0,0,0,0,0,0,0,0,0,0.3372,0.3371,0,0.333,0.3329,0.3329,0.3221,0.3218,0.3216,0.3214,0.3173,0.3174,0.3175,0,0,0,0,0,0,0,0,0,0,0,0,0,0.3362,0.3363,0.3372,0.3371,0.3371,0.333,0.3329,0.3329,0.3221,0.3218,0.3216,0.3213,0.3172,0.3174,0.3175,0,0,0,0,0,0,0,0,0,0,0,0,0,0.3348,0.3363,0.3372,0.3312,0.3306,0.333,0.3329,0.3329,0.3222,0.3218,0.3215,0.3212,0.3172,0.3174,0.3175,0.3254,0,0,0.318,0.3181,0,0,0,0,0,0,0,0,0.3349,0.3348,0.3321,0.3316,0.331,0.3277,0.3311,0.3304,0.3223,0.3254,0.3214,0.321,0.321,0.3209,0.3208,0.3252,0.325,0.318,0.3181,0.3182,0.3182,0,0,0,0,0,0,0,0.335,0.335,0.3355,0.3321,0.3314,0.3288,0.3283,0.3309,0.3252,0.3251,0.3243,0.3239,0.3207,0.3207,0.3207,0.325,0.318,0.3181,0.3182,0.3183,0.336,0.3363,0,0,0,0,0,0,0.3359,0.3351,0.3357,0.3354,0.3321,0.3291,0.3285,0.3291,0.3251,0.3242,0.3242,0.3234,0.3206,0.3205,0.3205,0.3297,0.3182,0.3183,0.3184,0.3356,0.3361,0.3365,0,0,0,0,0,0,0.3359,0.3361,0.3358,0.335,0.3348,0.3295,0.3303,0.3292,0.3292,0.3245,0.3235,0.3253,0.3203,0.3203,0.3243,0.3294,0.3184,0.3185,0.3352,0.3357,0.3363,0.3481,0,0,0,0,0,0,0.336,0.3361,0.339,0.3352,0.3349,0.3397,0.3306,0.3294,0.3295,0.3285,0.3252,0.3244,0.3201,0.3242,0.3245,0.3294,0.3187,0.3347,0.3354,0.3361,0.3473,0.349,0.3506,0,0,0,0,0,0.336,0.3425,0.3392,0.3393,0.3383,0.34,0.3398,0.3347,0.33,0.3329,0.3299,0.3245,0.3288,0.3247,0.3249,0.33,0.3343,0.3352,0.336,0.3465,0.3487,0.3505,0,0,0,0,0,0,0.347,0.3419,0.3382,0.3436,0.3423,0.3382,0.3417,0.3371,0.3371,0.3361,0.3298,0.3292,0.3342,0.3324,0.328,0.3376,0.3307,0.3316,0.3386,0.3406,0.3422,0.3426,0.3188,0,0,0,0,0,0.3501,0.3518,0.3472,0.3525,0.352,0.347,0.3475,0.3437,0.3421,0.3415,0.3388,0.3375,0.3386,0.3395,0.3402,0.3469,0.3462,0.3506,0.3522,0.3536,0.3545,0.3583,0.3603,0.3392,0.3392,0.3392,0,0,0.3565,0.3539,0.3553,0.3546,0.3532,0.3553,0.3466,0.349,0.3506,0.3419,0.3456,0.3436,0.3418,0.3474,0.3497,0.3461,0.3602,0.3546,0.3558,0.356,0.3594,0.3614,0.3632,0.3398,0.3397,0.3396,0,0,0.3692,0.3673,0.3716,0.3703,0.3683,0.3649,0.366,0.3626,0.3609,0.3646,0.3582,0.3599,0.3618,0.3609,0.3607,0.3734,0.3685,0.3738,0.3824,0.3862,0.3878,0.3893,0.3941,0.3958,0.3747,0.3747,0.3747,0,0.3774,0.3801,0.3744,0.3774,0.3774,0.3696,0.3741,0.3732,0.3715,0.3718,0.3677,0.3702,0.3684,0.3738,0.3769,0.3769,0.3781,0.3742,0.388,0.3894,0.3907,0.3952,0.397,0.3754,0.3753,0.3752,0.3752,0,0.3905,0.3925,0.3963,0.3949,0.3953,0.399,0.394,0.3951,0.3913,0.3885,0.3925,0.39,0.3903,0.3912,0.3874,0.3962,0.3941,0.3891,0.3821,0.3935,0.3976,0.3993,0.3764,0.3761,0.3759,0.3757,0,0,0.41,0.4056,0.4071,0.4065,0.4038,0.4053,0.4087,0.409,0.4102,0.4093,0.4123,0.4142,0.4097,0.4094,0.4055,0.4088,0.4194,0.4034,0.4033,0.4068,0.4292,0.4331,0.4352,0.416,0.4163,0.4166,0.4294,0,0.4223,0.4279,0.4229,0.4296,0.4315,0.4243,0.4273,0.4261,0.4236,0.425,0.4221,0.4237,0.4175,0.4174,0.4202,0.4175,0.4238,0.4164,0.4189,0.4191,0.4199,0.4373,0.4414,0.4537,0.431,0.4313,0.4315,0,0.4372,0.4372,0.444,0.4411,0.4418,0.4446,0.4446,0.4459,0.4444,0.4424,0.4423,0.4375,0.4409,0.4339,0.4386,0.4337,0.4344,0.4332,0.4336,0.4338,0.4261,0.4383,0.4574,0.4594,0.4339,0.4337,0.4335,0,0.4512,0.4528,0.4572,0.4569,0.4535,0.4557,0.4544,0.4526,0.4531,0.4531,0.4535,0.4539,0.4542,0.4546,0.4502,0.4454,0.4556,0.4481,0.4542,0.4544,0.4568,0.4568,0.4767,0.4569,0.4569,0.4569,0.4568,0,0.4655,0.4701,0.4635,0.4662,0.4712,0.4655,0.4706,0.4686,0.4671,0.4694,0.4631,0.4654,0.4593,0.4611,0.4576,0.4622,0.4623,0.4609,0.46,0.4617,0.4619,0.4622,0.4614,0.4573,0.4572,0.4571,0.4571,0,0.482,0.4777,0.4821,0.4786,0.4778,0.4817,0.4787,0.4812,0.4783,0.4814,0.4818,0.4773,0.479,0.4746,0.4757,0.4734,0.4801,0.4777,0.4807,0.4801,0.4865,0.4861,0.5074,0.5101,0.4885,0.4887,0.4888,0,0.4915,0.4949,0.4918,0.4929,0.492,0.4938,0.4944,0.489,0.4899,0.4886,0.4914,0.4926,0.4934,0.4966,0.4935,0.4944,0.4921,0.4995,0.4922,0.4938,0.4926,0.4925,0.493,0.5011,0.5014,0.5016,0.5018,0,0.509,0.5068,0.5078,0.5083,0.5091,0.5092,0.5088,0.5101,0.5044,0.5057,0.5075,0.5081,0.5093,0.5108,0.511,0.5098,0.505,0.5041,0.5056,0.5074,0.5092,0.5086,0.4851,0.5037,0.5035,0.5033,0.5032,0.5032,0.5224,0.5252,0.5236,0.5251,0.5242,0.5241,0.5264,0.5238,0.5252,0.5258,0.5225,0.5251,0.5237,0.5236,0.5229,0.5249,0.5215,0.5236,0.5242,0.5249,0.5261,0.5087,0.5249,0.5248,0.5248,0.5247,0.5247,0,0.5399,0.5385,0.5399,0.5396,0.5409,0.5361,0.5356,0.537,0.5393,0.5384,0.5394,0.5416,0.543,0.5401,0.5411,0.5433,0.5412,0.5438,0.5437,0.5436,0.5289,0.5277,0.5456,0.5456,0.5455,0.5455,0.5455,0.5455,0.5491,0.5536,0.5513,0.5555,0.554,0.5565,0.5566,0.5566,0.5559,0.5587,0.5598,0.5579,0.5563,0.5572,0.5584,0.5575,0.5583,0.5618,0.5602,0.5466,0.5446,0.5426,0.5414,0.5619,0.562,0.5747,0.5748,0.5749]},{"header":{"parameterUnit":"m.s-1","parameterCategory":1,"la1":30.2991,"la2":30.254,"lo1":-89.0895,"lo2":-89.0444,"dy":0.0017,"dx":0.0017,"nx":28,"ny":28,"refTime":"2024-12-05T03:00:00:Z","depth":0,"parameterNumber":3,"parameterNumberName":"V-component_of_WINDS"},"data":[0,0,0,0,0,0,0,0,0,0,0,0,0,0,0,0,0,0,0,0,0,0,0,0,0,0,0,0,0,0,0,0,0,0,0,0,0,0,0,0,0,0,0,0,0,0,0,0,0,0,0,0,0,0,0,0,0,0,-0.5549,-0.5547,0,-0.5303,-0.53,-0.5297,-0.5214,-0.5215,-0.5216,-0.5217,-0.4961,-0.4954,-0.4946,0,0,0,0,0,0,0,0,0,0,0,0,0,-0.5944,-0.5937,-0.5549,-0.5546,-0.5543,-0.5303,-0.53,-0.5297,-0.5213,-0.5215,-0.5216,-0.5217,-0.4964,-0.4955,-0.4945,0,0,0,0,0,0,0,0,0,0,0,0,0,-0.5743,-0.5935,-0.555,-0.5473,-0.5464,-0.5304,-0.53,-0.5296,-0.5213,-0.5215,-0.5216,-0.5218,-0.4967,-0.4955,-0.4944,-0.4842,0,0,-0.4909,-0.4904,0,0,0,0,0,0,0,0,-0.5754,-0.5728,-0.5487,-0.5478,-0.5467,-0.5291,-0.5345,-0.5144,-0.5213,-0.5308,-0.5217,-0.5218,-0.5069,-0.5049,-0.5,-0.483,-0.4819,-0.4908,-0.4901,-0.4896,-0.4892,0,0,0,0,0,0,0,-0.5768,-0.5738,-0.5452,-0.5484,-0.5472,-0.5449,-0.5422,-0.5307,-0.5183,-0.53,-0.5293,-0.5265,-0.5064,-0.5011,-0.4993,-0.4816,-0.4908,-0.4898,-0.489,-0.4886,-0.4549,-0.4547,0,0,0,0,0,0,-0.5796,-0.575,-0.546,-0.5444,-0.5617,-0.5441,-0.5411,-0.5346,-0.5184,-0.5161,-0.5264,-0.5262,-0.503,-0.5007,-0.4984,-0.4853,-0.4896,-0.4885,-0.4878,-0.4551,-0.4548,-0.4546,0,0,0,0,0,0,-0.5804,-0.577,-0.547,-0.5595,-0.5556,-0.5433,-0.536,-0.534,-0.5287,-0.5157,-0.5135,-0.5233,-0.5031,-0.5,-0.4878,-0.4843,-0.488,-0.4869,-0.4553,-0.455,-0.4547,-0.4591,0,0,0,0,0,0,-0.5816,-0.5774,-0.5735,-0.5595,-0.5549,-0.5369,-0.5358,-0.5334,-0.5268,-0.5263,-0.5122,-0.51,-0.5029,-0.4896,-0.4867,-0.4827,-0.486,-0.4556,-0.4552,-0.4548,-0.4592,-0.459,-0.4588,0,0,0,0,0,-0.583,-0.5757,-0.5733,-0.5699,-0.5498,-0.5367,-0.534,-0.5261,-0.5265,-0.5224,-0.5141,-0.5105,-0.4852,-0.4884,-0.485,-0.4807,-0.4557,-0.4553,-0.4548,-0.4593,-0.459,-0.4588,0,0,0,0,0,0,-0.5894,-0.5737,-0.5709,-0.5589,-0.5492,-0.5353,-0.5299,-0.5261,-0.5161,-0.516,-0.5065,-0.5034,-0.4919,-0.4851,-0.4889,-0.47,-0.4703,-0.4691,-0.4748,-0.4744,-0.4742,-0.476,-0.485,0,0,0,0,0,-0.5895,-0.5803,-0.567,-0.5576,-0.5529,-0.5423,-0.5363,-0.531,-0.5206,-0.5164,-0.5072,-0.4971,-0.4868,-0.4803,-0.4702,-0.4582,-0.455,-0.4536,-0.4534,-0.4533,-0.4524,-0.4454,-0.4446,-0.4531,-0.4531,-0.4532,0,0,-0.5893,-0.5796,-0.5744,-0.5586,-0.5505,-0.541,-0.5389,-0.529,-0.5218,-0.5149,-0.5027,-0.4956,-0.4837,-0.4716,-0.4658,-0.4656,-0.4493,-0.4527,-0.4528,-0.4518,-0.4449,-0.4441,-0.4433,-0.4528,-0.4529,-0.4529,0,0,-0.5843,-0.5761,-0.5673,-0.5593,-0.5471,-0.54,-0.538,-0.5246,-0.5197,-0.5074,-0.5019,-0.4933,-0.4759,-0.4676,-0.4611,-0.453,-0.4492,-0.4499,-0.4488,-0.4421,-0.4414,-0.4408,-0.4377,-0.4367,-0.4491,-0.4491,-0.4491,0,-0.5856,-0.5713,-0.5632,-0.5536,-0.5468,-0.5402,-0.5311,-0.5237,-0.5088,-0.5041,-0.5042,-0.4821,-0.4737,-0.4594,-0.4575,-0.4525,-0.4497,-0.4514,-0.4422,-0.4415,-0.4407,-0.4377,-0.4366,-0.4492,-0.4492,-0.4492,-0.4492,0,-0.5735,-0.5636,-0.558,-0.5438,-0.5364,-0.5271,-0.5175,-0.5109,-0.5064,-0.4993,-0.4868,-0.4765,-0.4641,-0.4604,-0.4558,-0.4454,-0.4456,-0.4441,-0.4441,-0.4402,-0.4372,-0.4359,-0.4495,-0.4494,-0.4494,-0.4493,0,0,-0.5716,-0.5532,-0.5512,-0.5447,-0.5308,-0.5229,-0.5133,-0.5013,-0.4957,-0.4857,-0.4773,-0.4627,-0.4612,-0.4538,-0.4483,-0.4424,-0.4364,-0.4415,-0.4411,-0.4408,-0.4242,-0.4253,-0.4241,-0.434,-0.4337,-0.4335,-0.4251,0,-0.5646,-0.5472,-0.5397,-0.5257,-0.5164,-0.51,-0.5016,-0.4921,-0.4853,-0.4763,-0.4687,-0.4585,-0.4573,-0.4528,-0.4468,-0.4385,-0.433,-0.439,-0.4258,-0.4255,-0.4288,-0.4225,-0.4237,-0.4163,-0.4239,-0.4237,-0.4236,0,-0.554,-0.544,-0.5292,-0.5163,-0.5121,-0.5047,-0.493,-0.4846,-0.4737,-0.4691,-0.461,-0.4557,-0.4452,-0.4462,-0.4315,-0.4358,-0.43,-0.4251,-0.4246,-0.4228,-0.4241,-0.4205,-0.4137,-0.4125,-0.4216,-0.4218,-0.4219,0,-0.5539,-0.5367,-0.5256,-0.5202,-0.505,-0.4999,-0.4933,-0.4825,-0.4758,-0.4656,-0.461,-0.4498,-0.4435,-0.4348,-0.4266,-0.4281,-0.4126,-0.413,-0.4084,-0.4086,-0.4052,-0.4055,-0.3973,-0.4019,-0.4019,-0.402,-0.402,0,-0.5467,-0.5378,-0.5253,-0.5184,-0.5082,-0.4996,-0.4897,-0.4827,-0.4731,-0.4646,-0.4585,-0.4507,-0.4404,-0.4312,-0.4247,-0.4134,-0.4107,-0.4066,-0.4049,-0.407,-0.4075,-0.4029,-0.4031,-0.4016,-0.4017,-0.4018,-0.4018,0,-0.5447,-0.5361,-0.5234,-0.5101,-0.5066,-0.4996,-0.4881,-0.4811,-0.4741,-0.4634,-0.4604,-0.4493,-0.4382,-0.4292,-0.4146,-0.4102,-0.3983,-0.3965,-0.402,-0.4011,-0.397,-0.3974,-0.3853,-0.3831,-0.3895,-0.3895,-0.3894,0,-0.5406,-0.5336,-0.5196,-0.5136,-0.5071,-0.4974,-0.4905,-0.4818,-0.4748,-0.4618,-0.4563,-0.4448,-0.4351,-0.4176,-0.4081,-0.3969,-0.3946,-0.3912,-0.3929,-0.3951,-0.3943,-0.3947,-0.3939,-0.3909,-0.3909,-0.3909,-0.3908,0,-0.5342,-0.5302,-0.5206,-0.5094,-0.5014,-0.4921,-0.4827,-0.4781,-0.4676,-0.4601,-0.4487,-0.4412,-0.4263,-0.4148,-0.4026,-0.3957,-0.3914,-0.3904,-0.3887,-0.3906,-0.394,-0.3919,-0.4013,-0.3907,-0.3907,-0.3907,-0.3907,-0.3907,-0.5308,-0.5243,-0.5134,-0.5028,-0.4948,-0.4862,-0.4789,-0.471,-0.4614,-0.4487,-0.4441,-0.4324,-0.4215,-0.4047,-0.3977,-0.3883,-0.3879,-0.3855,-0.3848,-0.3843,-0.3844,-0.3958,-0.3861,-0.386,-0.386,-0.386,-0.386,0,-0.5238,-0.5166,-0.507,-0.494,-0.4857,-0.4827,-0.4721,-0.4652,-0.455,-0.4453,-0.4359,-0.4227,-0.4116,-0.4013,-0.3896,-0.3841,-0.3818,-0.3813,-0.3815,-0.3799,-0.3856,-0.3881,-0.3833,-0.3833,-0.3833,-0.3833,-0.3833,-0.3833,-0.5192,-0.5079,-0.5027,-0.4874,-0.4801,-0.4686,-0.4628,-0.4547,-0.4469,-0.4326,-0.4233,-0.4168,-0.4067,-0.3943,-0.3839,-0.3811,-0.377,-0.3769,-0.3737,-0.3791,-0.3795,-0.3799,-0.3822,-0.3762,-0.3762,-0.3687,-0.3686,-0.3686]}]]